Charlotte, NC

2:13 AM EDT on October 21, 2017 (GMT -0400)
Charlotte-Douglas International

Weather History for KCLT - May, 2003

Change the Weather History Date:

Saturday, May 31, 2003

  Actual Average Record
Temperature  
Mean Temperature 70 °F 72 °F  
Max Temperature 82 °F 83 °F 97 °F (1953)
Min Temperature 59 °F 61 °F 42 °F (1984)
Degree Days  
Heating Degree Days 0 0  
Month to date heating degree days 53  
Since 1 July heating degree days 3385  
Cooling Degree Days 6 7  
Month to date cooling degree days 126  
Year to date cooling degree days 163  
Growing Degree Days 20 (Base 50)    
Moisture  
Dew Point 60 °F    
Average Humidity 72    
Maximum Humidity 94    
Minimum Humidity 46    
Precipitation  
Precipitation 0.25 in 0.12 in 1.77 in (1975)
Month to date precipitation 3.18  
Year to date precipitation 16.96  
Snow  
Snow 0.00 in 0.00 in 0.00 in ()
Month to date snowfall 0.0  
Since 1 July snowfall 4.3  
Snow Depth -    
Sea Level Pressure  
Sea Level Pressure 29.59 in    
Wind  
Wind Speed 7 mph (SW)    
Max Wind Speed 21 mph    
Max Gust Speed 36 mph    
Visibility 8 miles    
Events Rain , Thunderstorm    
T = Trace of Precipitation, MM = Missing Value Source: NWS Daily Summary

Daily Weather History Graph

Daily Weather History Graph

Search for Another Location

Airport or City:

Trip Planner

Search our weather history database for the weather conditions in past years. The results will help you decide how hot, cold, wet, or windy it might be!

Date:

Astronomy

May. 31, 2003 Rise Set
Actual Time 6:10 AM EDT 8:32 PM EDT
Civil Twilight 5:41 AM EDT 9:01 PM EDT
Nautical Twilight 5:05 AM EDT 9:37 PM EDT
Astronomical Twilight 4:26 AM EDT 10:16 PM EDT
Moon 6:21 AM EDT (5/31) 9:18 PM EDT (5/31)
Length of Visible Light 15h 19m
Length of Day
14h 21m
New Moon, 0% of the Moon is Illuminated
May 31
New Moon
Jun 7
First Quarter
Jun 14
Full
Jun 21
Last Quarter
Jun 29
New

Hourly Weather History & Observations

Time (EDT) Temp. Heat Index Dew Point Humidity Pressure Visibility Wind Dir Wind Speed Gust Speed Precip Events Conditions
12:51 AM 61.0 °F - 55.0 °F 81% 29.75 in 9.0 mi South 3.5 mph - N/A   Clear
1:51 AM 59.0 °F - 55.0 °F 87% 29.74 in 9.0 mi South 4.6 mph - N/A   Clear
2:51 AM 60.1 °F - 55.0 °F 83% 29.71 in 10.0 mi South 4.6 mph - N/A   Scattered Clouds
3:51 AM 63.0 °F - 55.9 °F 78% 29.70 in 10.0 mi SW 4.6 mph - N/A   Mostly Cloudy
4:51 AM 61.0 °F - 55.9 °F 83% 29.69 in 10.0 mi South 4.6 mph - N/A   Mostly Cloudy
6:51 AM 62.1 °F - 55.9 °F 80% 29.65 in 10.0 mi South 9.2 mph - N/A   Overcast
7:51 AM 63.0 °F - 55.0 °F 75% 29.65 in 10.0 mi South 5.8 mph - N/A   Overcast
8:51 AM 60.1 °F - 57.0 °F 90% 29.71 in 5.0 mi North 9.2 mph - 0.08 in Rain , Thunderstorm Light Thunderstorms and Rain
9:03 AM 59.0 °F - 57.2 °F 94% 29.70 in 1.0 mi Calm Calm - 0.13 in Rain , Thunderstorm Heavy Thunderstorms and Rain
9:10 AM 60.8 °F - 57.2 °F 88% 29.69 in 5.0 mi SSE 3.5 mph - 0.14 in Rain , Thunderstorm Light Thunderstorms and Rain
9:39 AM 60.8 °F - 59.0 °F 94% 29.68 in 6.0 mi SSE 6.9 mph - 0.16 in   Mostly Cloudy
9:51 AM 62.1 °F - 59.0 °F 90% 29.65 in 7.0 mi South 6.9 mph - 0.16 in   Overcast
10:51 AM 66.9 °F - 62.1 °F 84% 29.62 in 7.0 mi SSE 11.5 mph - N/A   Overcast
11:51 AM 72.0 °F - 64.9 °F 78% 29.59 in 8.0 mi South 9.2 mph - N/A   Mostly Cloudy
12:51 PM 78.1 °F - 66.9 °F 68% 29.54 in 10.0 mi SSW 10.4 mph - N/A   Mostly Cloudy
1:51 PM 81.0 °F 83.8 °F 68.0 °F 65% 29.51 in 10.0 mi SSW 13.8 mph 20.7 mph N/A   Scattered Clouds
2:51 PM 82.9 °F 86.5 °F 69.1 °F 63% 29.47 in 8.0 mi SSW 12.7 mph 21.9 mph N/A   Scattered Clouds
3:36 PM 80.6 °F 83.2 °F 68.0 °F 65% 29.44 in 7.0 mi SW 8.1 mph 23.0 mph N/A Thunderstorm Thunderstorm
3:51 PM 82.0 °F 84.9 °F 68.0 °F 62% 29.41 in 7.0 mi WSW 15.0 mph 35.7 mph N/A Thunderstorm Thunderstorm
4:36 PM 82.4 °F 84.6 °F 66.2 °F 58% 29.45 in 6.0 mi SW 12.7 mph 25.3 mph N/A   Haze
4:51 PM 82.0 °F 84.5 °F 66.9 °F 60% 29.43 in 6.0 mi WSW 11.5 mph 21.9 mph N/A   Haze
5:35 PM 78.8 °F - 66.2 °F 65% 29.47 in 6.0 mi NW 20.7 mph 27.6 mph 0.01 in Rain , Thunderstorm Light Thunderstorms and Rain
5:51 PM 73.9 °F - 68.0 °F 82% 29.46 in 6.0 mi WNW 8.1 mph - 0.01 in Rain , Thunderstorm Light Thunderstorms and Rain
6:12 PM 75.2 °F - 66.2 °F 73% 29.48 in 6.0 mi SW 8.1 mph 16.1 mph 0.00 in   Haze
6:51 PM 77.0 °F - 64.9 °F 66% 29.49 in 9.0 mi NW 10.4 mph - 0.00 in   Mostly Cloudy
7:51 PM 73.9 °F - 54.0 °F 50% 29.53 in 10.0 mi NW 9.2 mph - N/A   Scattered Clouds
8:51 PM 73.0 °F - 51.1 °F 46% 29.55 in 10.0 mi WNW 11.5 mph 27.6 mph N/A   Partly Cloudy
9:51 PM 71.1 °F - 51.1 °F 49% 29.60 in 10.0 mi NW 12.7 mph 21.9 mph N/A   Scattered Clouds
10:51 PM 68.0 °F - 52.0 °F 56% 29.63 in 10.0 mi NW 10.4 mph 17.3 mph N/A   Partly Cloudy
11:51 PM 66.0 °F - 52.0 °F 60% 29.65 in 10.0 mi Variable 3.5 mph - N/A   Clear